owner,sensor,date,latitude,longitude,vertical_datum,direction_of_sea_water_velocity,sea_water_speed,upward_sea_water_velocity,qcFlag 
TABS,ioos:station:wmo:42048:1,1996-12-01T00:00:00Z,27.9396,-96.8429,2.0,208.43405,12.20200803,-99999.0,'11111222,11111222,99999999' 
TABS,ioos:station:wmo:42048:1,1996-12-01T00:30:00Z,27.9396,-96.8429,2.0,218.8898053,12.82196943,-99999.0,'11111222,11111222,99999999' 
TABS,ioos:station:wmo:42048:1,1996-12-01T01:00:00Z,27.9396,-96.8429,2.0,225.5595588,10.85460732,-99999.0,'11111222,11111222,99999999' 
TABS,ioos:station:wmo:42048:1,1996-12-01T01:30:00Z,27.9396,-96.8429,2.0,220.9931716,12.04317649,-99999.0,'11111222,11111222,99999999' 
TABS,ioos:station:wmo:42048:1,1996-12-01T02:00:00Z,27.9396,-96.8429,2.0,215.6791627,11.7445349,-99999.0,'11111222,11111222,99999999' 
TABS,ioos:station:wmo:42048:1,1996-12-01T02:30:00Z,27.9396,-96.8429,2.0,233.5770091,12.04236688,-99999.0,'11111222,11111222,99999999' 
TABS,ioos:station:wmo:42048:1,1996-12-01T03:00:00Z,27.9396,-96.8429,2.0,221.949931,13.82230082,-99999.0,'11111222,11111222,99999999' 
TABS,ioos:station:wmo:42048:1,1996-12-01T03:30:00Z,27.9396,-96.8429,2.0,227.0737048,14.65378108,-99999.0,'11111222,11111222,99999999' 
TABS,ioos:station:wmo:42048:1,1996-12-01T04:00:00Z,27.9396,-96.8429,2.0,223.5457922,12.54104063,-99999.0,'11111222,11111222,99999999' 
TABS,ioos:station:wmo:42048:1,1996-12-01T04:30:00Z,27.9396,-96.8429,2.0,227.9983046,12.03021612,-99999.0,'11111222,11111222,99999999' 
TABS,ioos:station:wmo:42048:1,1996-12-01T05:00:00Z,27.9396,-96.8429,2.0,231.0704057,9.962434441,-99999.0,'11133222,11111222,99999999' 
TABS,ioos:station:wmo:42048:1,1996-12-01T05:30:00Z,27.9396,-96.8429,2.0,244.7767345,8.400976134,-99999.0,'11133222,11111222,99999999' 
TABS,ioos:station:wmo:42048:1,1996-12-01T06:00:00Z,27.9396,-96.8429,2.0,254.3971624,6.655238538,-99999.0,'11133222,11111222,99999999' 
TABS,ioos:station:wmo:42048:1,1996-12-01T06:30:00Z,27.9396,-96.8429,2.0,258.7081615,6.077639344,-99999.0,'11133222,11111222,99999999' 
TABS,ioos:station:wmo:42048:1,1996-12-01T07:00:00Z,27.9396,-96.8429,2.0,242.7861625,5.532386465,-99999.0,'11133222,11111222,99999999' 
TABS,ioos:station:wmo:42048:1,1996-12-01T07:30:00Z,27.9396,-96.8429,2.0,247.2214436,5.010788361,-99999.0,'11133222,11111222,99999999' 
TABS,ioos:station:wmo:42048:1,1996-12-01T08:00:00Z,27.9396,-96.8429,2.0,221.1629495,4.755344362,-99999.0,'11133222,11111222,99999999' 
TABS,ioos:station:wmo:42048:1,1996-12-01T08:30:00Z,27.9396,-96.8429,2.0,233.4503634,5.004078337,-99999.0,'11133222,11111222,99999999' 
TABS,ioos:station:wmo:42048:1,1996-12-01T09:00:00Z,27.9396,-96.8429,2.0,280.5692767,4.852319033,-99999.0,'11133222,11111222,99999999' 
TABS,ioos:station:wmo:42048:1,1996-12-01T09:30:00Z,27.9396,-96.8429,2.0,259.746005,4.999849998,-99999.0,'11133222,11111222,99999999' 
TABS,ioos:station:wmo:42048:1,1996-12-01T10:00:00Z,27.9396,-96.8429,2.0,268.1984228,4.772357908,-99999.0,'11133222,11111222,99999999' 
TABS,ioos:station:wmo:42048:1,1996-12-01T10:30:00Z,27.9396,-96.8429,2.0,276.3093485,8.099049327,-99999.0,'11133222,11111222,99999999' 
TABS,ioos:station:wmo:42048:1,1996-12-01T11:00:00Z,27.9396,-96.8429,2.0,271.9223724,4.47251607,-99999.0,'11133222,11111222,99999999' 
TABS,ioos:station:wmo:42048:1,1996-12-01T11:30:00Z,27.9396,-96.8429,2.0,267.4918832,6.856566196,-99999.0,'11133222,11111222,99999999' 
TABS,ioos:station:wmo:42048:1,1996-12-01T12:00:00Z,27.9396,-96.8429,2.0,267.3811757,6.566856173,-99999.0,'11133222,11111222,99999999' 
TABS,ioos:station:wmo:42048:1,1996-12-01T12:30:00Z,27.9396,-96.8429,2.0,271.1775631,7.301540933,-99999.0,'11133222,11111222,99999999' 
TABS,ioos:station:wmo:42048:1,1996-12-01T13:00:00Z,27.9396,-96.8429,2.0,259.1581381,10.3140923,-99999.0,'11111222,11111222,99999999' 
TABS,ioos:station:wmo:42048:1,1996-12-01T13:30:00Z,27.9396,-96.8429,2.0,273.2039244,5.368388958,-99999.0,'11133222,11111222,99999999' 
TABS,ioos:station:wmo:42048:1,1996-12-01T14:00:00Z,27.9396,-96.8429,2.0,274.3436507,7.922752047,-99999.0,'11133222,11111222,99999999' 
TABS,ioos:station:wmo:42048:1,1996-12-01T14:30:00Z,27.9396,-96.8429,2.0,293.4614253,4.872832852,-99999.0,'11133222,11111222,99999999' 
TABS,ioos:station:wmo:42048:1,1996-12-01T15:00:00Z,27.9396,-96.8429,2.0,259.4315896,4.089364254,-99999.0,'11133222,11111222,99999999' 
TABS,ioos:station:wmo:42048:1,1996-12-01T15:30:00Z,27.9396,-96.8429,2.0,265.3306235,5.528345141,-99999.0,'11133222,11111222,99999999' 
TABS,ioos:station:wmo:42048:1,1996-12-01T16:00:00Z,27.9396,-96.8429,2.0,284.5464356,3.543585755,-99999.0,'11133222,11111222,99999999' 
TABS,ioos:station:wmo:42048:1,1996-12-01T16:30:00Z,27.9396,-96.8429,2.0,276.387523,4.045108157,-99999.0,'11133222,11111222,99999999' 
TABS,ioos:station:wmo:42048:1,1996-12-01T17:00:00Z,27.9396,-96.8429,2.0,305.9250581,5.33472586,-99999.0,'11133222,11111222,99999999' 
TABS,ioos:station:wmo:42048:1,1996-12-01T17:30:00Z,27.9396,-96.8429,2.0,291.2095975,2.874717377,-99999.0,'11133222,11111222,99999999' 
TABS,ioos:station:wmo:42048:1,1996-12-01T18:00:00Z,27.9396,-96.8429,2.0,336.9341494,2.27160736,-99999.0,'11133222,11111222,99999999' 
TABS,ioos:station:wmo:42048:1,1996-12-01T18:30:00Z,27.9396,-96.8429,2.0,60.7642638,1.535610628,-99999.0,'11133222,11111222,99999999' 
TABS,ioos:station:wmo:42048:1,1996-12-01T19:00:00Z,27.9396,-96.8429,2.0,325.0857684,1.817058062,-99999.0,'11133222,11111222,99999999' 
TABS,ioos:station:wmo:42048:1,1996-12-01T19:30:00Z,27.9396,-96.8429,2.0,63.2427444,1.332704018,-99999.0,'11133222,11111222,99999999' 
TABS,ioos:station:wmo:42048:1,1996-12-01T20:00:00Z,27.9396,-96.8429,2.0,0.000210459,1.04,-99999.0,'11133222,11111222,99999999' 
TABS,ioos:station:wmo:42048:1,1996-12-01T20:30:00Z,27.9396,-96.8429,2.0,28.19512359,2.201181501,-99999.0,'11133222,11111222,99999999' 
TABS,ioos:station:wmo:42048:1,1996-12-01T21:00:00Z,27.9396,-96.8429,2.0,45.00010523,2.955706345,-99999.0,'11133222,11111222,99999999' 
TABS,ioos:station:wmo:42048:1,1996-12-01T21:30:00Z,27.9396,-96.8429,2.0,33.17465542,4.623613306,-99999.0,'11133222,11111222,99999999' 
TABS,ioos:station:wmo:42048:1,1996-12-01T22:00:00Z,27.9396,-96.8429,2.0,36.17686684,4.794350842,-99999.0,'11133222,11111222,99999999' 
TABS,ioos:station:wmo:42048:1,1996-12-01T22:30:00Z,27.9396,-96.8429,2.0,25.04044861,7.395059161,-99999.0,'11133222,11111222,99999999' 
TABS,ioos:station:wmo:42048:1,1996-12-01T23:00:00Z,27.9396,-96.8429,2.0,20.15952525,7.776400195,-99999.0,'11133222,11111222,99999999' 
TABS,ioos:station:wmo:42048:1,1996-12-01T23:30:00Z,27.9396,-96.8429,2.0,29.55832452,10.27757267,-99999.0,'11111222,11111222,99999999' 
TABS,ioos:station:wmo:42048:1,1996-12-02T00:00:00Z,27.9396,-96.8429,2.0,20.9705938,11.65175094,-99999.0,'11111222,11111222,99999999' 
TABS,ioos:station:wmo:42048:1,1996-12-02T00:30:00Z,27.9396,-96.8429,2.0,25.24171414,14.32807384,-99999.0,'11111222,11111222,99999999' 
TABS,ioos:station:wmo:42048:1,1996-12-02T01:00:00Z,27.9396,-96.8429,2.0,31.55152163,15.38423219,-99999.0,'11111222,11111222,99999999' 
TABS,ioos:station:wmo:42048:1,1996-12-02T01:30:00Z,27.9396,-96.8429,2.0,35.85181693,16.54461242,-99999.0,'11111222,11111222,99999999' 
TABS,ioos:station:wmo:42048:1,1996-12-02T02:00:00Z,27.9396,-96.8429,2.0,36.76169987,16.92603025,-99999.0,'11111222,11111222,99999999' 
TABS,ioos:station:wmo:42048:1,1996-12-02T02:30:00Z,27.9396,-96.8429,2.0,38.74709477,16.42481355,-99999.0,'11111222,11111222,99999999' 
TABS,ioos:station:wmo:42048:1,1996-12-02T03:00:00Z,27.9396,-96.8429,2.0,36.75869629,15.44002915,-99999.0,'11111222,11111222,99999999' 
TABS,ioos:station:wmo:42048:1,1996-12-02T03:30:00Z,27.9396,-96.8429,2.0,40.77512851,15.74054637,-99999.0,'11111222,11111222,99999999' 
TABS,ioos:station:wmo:42048:1,1996-12-02T04:00:00Z,27.9396,-96.8429,2.0,35.1954586,17.31539488,-99999.0,'11111222,11111222,99999999' 
TABS,ioos:station:wmo:42048:1,1996-12-02T04:30:00Z,27.9396,-96.8429,2.0,35.9394686,16.74820886,-99999.0,'11111222,11111222,99999999' 
TABS,ioos:station:wmo:42048:1,1996-12-02T05:00:00Z,27.9396,-96.8429,2.0,35.80347084,15.79473647,-99999.0,'11111222,11111222,99999999' 
TABS,ioos:station:wmo:42048:1,1996-12-02T05:30:00Z,27.9396,-96.8429,2.0,33.54529398,16.44968693,-99999.0,'11111222,11111222,99999999' 
TABS,ioos:station:wmo:42048:1,1996-12-02T06:00:00Z,27.9396,-96.8429,2.0,36.35275523,16.83668613,-99999.0,'11111222,11111222,99999999' 
TABS,ioos:station:wmo:42048:1,1996-12-02T06:30:00Z,27.9396,-96.8429,2.0,41.37985595,16.68566151,-99999.0,'11111222,11111222,99999999' 
TABS,ioos:station:wmo:42048:1,1996-12-02T07:00:00Z,27.9396,-96.8429,2.0,37.64027545,15.62141159,-99999.0,'11111222,11111222,99999999' 
TABS,ioos:station:wmo:42048:1,1996-12-02T07:30:00Z,27.9396,-96.8429,2.0,42.09769289,14.66299083,-99999.0,'11111222,11111222,99999999' 
TABS,ioos:station:wmo:42048:1,1996-12-02T08:00:00Z,27.9396,-96.8429,2.0,36.49748267,13.53428609,-99999.0,'11111222,11111222,99999999' 
TABS,ioos:station:wmo:42048:1,1996-12-02T08:30:00Z,27.9396,-96.8429,2.0,39.88572269,16.49884844,-99999.0,'11111222,11111222,99999999' 
TABS,ioos:station:wmo:42048:1,1996-12-02T09:00:00Z,27.9396,-96.8429,2.0,44.61315268,15.70519978,-99999.0,'11111222,11111222,99999999' 
TABS,ioos:station:wmo:42048:1,1996-12-02T09:30:00Z,27.9396,-96.8429,2.0,36.98972014,14.36003134,-99999.0,'11111222,11111222,99999999' 
TABS,ioos:station:wmo:42048:1,1996-12-02T10:00:00Z,27.9396,-96.8429,2.0,46.38378896,13.17724174,-99999.0,'11111222,11111222,99999999' 
TABS,ioos:station:wmo:42048:1,1996-12-02T10:30:00Z,27.9396,-96.8429,2.0,36.2234308,13.11483511,-99999.0,'11111222,11111222,99999999' 
TABS,ioos:station:wmo:42048:1,1996-12-02T11:00:00Z,27.9396,-96.8429,2.0,31.75804079,14.72456791,-99999.0,'11111222,11111222,99999999' 
TABS,ioos:station:wmo:42048:1,1996-12-02T11:30:00Z,27.9396,-96.8429,2.0,45.43393575,14.00818689,-99999.0,'11111222,11111222,99999999' 
TABS,ioos:station:wmo:42048:1,1996-12-02T12:00:00Z,27.9396,-96.8429,2.0,38.98584702,12.08023592,-99999.0,'11111222,11111222,99999999' 
TABS,ioos:station:wmo:42048:1,1996-12-02T12:30:00Z,27.9396,-96.8429,2.0,56.51935728,12.14524187,-99999.0,'11111222,11111222,99999999' 
TABS,ioos:station:wmo:42048:1,1996-12-02T13:00:00Z,27.9396,-96.8429,2.0,37.39708383,9.566404758,-99999.0,'11133222,11111222,99999999' 
TABS,ioos:station:wmo:42048:1,1996-12-02T13:30:00Z,27.9396,-96.8429,2.0,46.53170944,11.90486035,-99999.0,'11111222,11111222,99999999' 
TABS,ioos:station:wmo:42048:1,1996-12-02T14:00:00Z,27.9396,-96.8429,2.0,54.80617506,9.299978495,-99999.0,'11133222,11111222,99999999' 
TABS,ioos:station:wmo:42048:1,1996-12-02T14:30:00Z,27.9396,-96.8429,2.0,59.199675,9.022577237,-99999.0,'11133222,11111222,99999999' 
TABS,ioos:station:wmo:42048:1,1996-12-02T15:00:00Z,27.9396,-96.8429,2.0,51.50904645,7.422971103,-99999.0,'11133222,11111222,99999999' 
TABS,ioos:station:wmo:42048:1,1996-12-02T15:30:00Z,27.9396,-96.8429,2.0,60.14799354,9.281535433,-99999.0,'11133222,11111222,99999999' 
TABS,ioos:station:wmo:42048:1,1996-12-02T16:00:00Z,27.9396,-96.8429,2.0,64.3720812,7.930157628,-99999.0,'11133222,11111222,99999999' 
TABS,ioos:station:wmo:42048:1,1996-12-02T16:30:00Z,27.9396,-96.8429,2.0,64.06231046,6.127193485,-99999.0,'11133222,11111222,99999999' 
TABS,ioos:station:wmo:42048:1,1996-12-02T17:00:00Z,27.9396,-96.8429,2.0,55.29722968,4.707366567,-99999.0,'11133222,11111222,99999999' 
TABS,ioos:station:wmo:42048:1,1996-12-02T17:30:00Z,27.9396,-96.8429,2.0,47.13171349,2.851613578,-99999.0,'11133222,11111222,99999999' 
TABS,ioos:station:wmo:42048:1,1996-12-02T18:00:00Z,27.9396,-96.8429,2.0,41.28814015,3.167412193,-99999.0,'11133222,11111222,99999999' 
TABS,ioos:station:wmo:42048:1,1996-12-02T18:30:00Z,27.9396,-96.8429,2.0,52.40288734,4.884393514,-99999.0,'11133222,11111222,99999999' 
TABS,ioos:station:wmo:42048:1,1996-12-02T19:00:00Z,27.9396,-96.8429,2.0,45.00010523,4.638620485,-99999.0,'11133222,11111222,99999999' 
TABS,ioos:station:wmo:42048:1,1996-12-02T19:30:00Z,27.9396,-96.8429,2.0,58.08108862,4.21773636,-99999.0,'11133222,11111222,99999999' 
TABS,ioos:station:wmo:42048:1,1996-12-02T20:00:00Z,27.9396,-96.8429,2.0,85.20988048,3.592547842,-99999.0,'11133222,11111222,99999999' 
TABS,ioos:station:wmo:42048:1,1996-12-02T20:30:00Z,27.9396,-96.8429,2.0,61.91424484,2.527647127,-99999.0,'11133222,11111222,99999999' 
TABS,ioos:station:wmo:42048:1,1996-12-02T21:00:00Z,27.9396,-96.8429,2.0,90.0,1.49,-99999.0,'11133222,11111222,99999999' 
TABS,ioos:station:wmo:42048:1,1996-12-02T21:30:00Z,27.9396,-96.8429,2.0,98.79052263,1.963058838,-99999.0,'11133222,11111222,99999999' 
TABS,ioos:station:wmo:42048:1,1996-12-02T22:00:00Z,27.9396,-96.8429,2.0,90.0,3.13,-99999.0,'11133222,11111222,99999999' 
TABS,ioos:station:wmo:42048:1,1996-12-02T22:30:00Z,27.9396,-96.8429,2.0,106.6286223,3.110064308,-99999.0,'11133222,11111222,99999999' 
TABS,ioos:station:wmo:42048:1,1996-12-02T23:00:00Z,27.9396,-96.8429,2.0,107.4909564,2.495375723,-99999.0,'11133222,11111222,99999999' 
TABS,ioos:station:wmo:42048:1,1996-12-02T23:30:00Z,27.9396,-96.8429,2.0,110.7141264,1.272242115,-99999.0,'11133222,11111222,99999999' 
TABS,ioos:station:wmo:42048:1,1996-12-03T00:00:00Z,27.9396,-96.8429,2.0,134.9998948,1.470782105,-99999.0,'11133222,11111222,99999999' 
TABS,ioos:station:wmo:42048:1,1996-12-03T00:30:00Z,27.9396,-96.8429,2.0,124.9144421,1.817058062,-99999.0,'11133222,11111222,99999999' 
TABS,ioos:station:wmo:42048:1,1996-12-03T01:00:00Z,27.9396,-96.8429,2.0,131.0217107,2.955757094,-99999.0,'11133222,11111222,99999999' 
TABS,ioos:station:wmo:42048:1,1996-12-03T01:30:00Z,27.9396,-96.8429,2.0,167.3804968,2.746343023,-99999.0,'11133222,11111222,99999999' 
TABS,ioos:station:wmo:42048:1,1996-12-03T02:00:00Z,27.9396,-96.8429,2.0,140.8155077,3.070504844,-99999.0,'11133222,11111222,99999999' 
TABS,ioos:station:wmo:42048:1,1996-12-03T02:30:00Z,27.9396,-96.8429,2.0,157.8063369,4.341658669,-99999.0,'11133222,11111222,99999999' 
TABS,ioos:station:wmo:42048:1,1996-12-03T03:00:00Z,27.9396,-96.8429,2.0,181.921741,4.47251607,-99999.0,'11133222,11111222,99999999' 
TABS,ioos:station:wmo:42048:1,1996-12-03T03:30:00Z,27.9396,-96.8429,2.0,179.9997895,4.62,-99999.0,'11133222,11111222,99999999' 
TABS,ioos:station:wmo:42048:1,1996-12-03T04:00:00Z,27.9396,-96.8429,2.0,178.253512,4.922286054,-99999.0,'11133222,11111222,99999999' 
TABS,ioos:station:wmo:42048:1,1996-12-03T04:30:00Z,27.9396,-96.8429,2.0,179.9997895,5.81,-99999.0,'11133222,11111222,99999999' 
TABS,ioos:station:wmo:42048:1,1996-12-03T05:00:00Z,27.9396,-96.8429,2.0,181.3724257,6.261796867,-99999.0,'11133222,11111222,99999999' 
TABS,ioos:station:wmo:42048:1,1996-12-03T05:30:00Z,27.9396,-96.8429,2.0,172.8274674,6.007004245,-99999.0,'11133222,11111222,99999999' 
TABS,ioos:station:wmo:42048:1,1996-12-03T06:00:00Z,27.9396,-96.8429,2.0,197.6715003,6.884889251,-99999.0,'11133222,11111222,99999999' 
TABS,ioos:station:wmo:42048:1,1996-12-03T06:30:00Z,27.9396,-96.8429,2.0,193.5982794,8.889190064,-99999.0,'11133222,11111222,99999999' 
TABS,ioos:station:wmo:42048:1,1996-12-03T07:00:00Z,27.9396,-96.8429,2.0,194.5539695,8.316886437,-99999.0,'11133222,11111222,99999999' 
TABS,ioos:station:wmo:42048:1,1996-12-03T07:30:00Z,27.9396,-96.8429,2.0,183.6010592,7.164146844,-99999.0,'11133222,11111222,99999999' 
TABS,ioos:station:wmo:42048:1,1996-12-03T08:00:00Z,27.9396,-96.8429,2.0,184.5137674,7.623647421,-99999.0,'11133222,11111222,99999999' 
TABS,ioos:station:wmo:42048:1,1996-12-03T08:30:00Z,27.9396,-96.8429,2.0,181.0672867,8.051397394,-99999.0,'11133222,11111222,99999999' 
TABS,ioos:station:wmo:42048:1,1996-12-03T09:00:00Z,27.9396,-96.8429,2.0,196.9557902,9.189477678,-99999.0,'11133222,11111222,99999999' 
TABS,ioos:station:wmo:42048:1,1996-12-03T09:30:00Z,27.9396,-96.8429,2.0,202.0125181,7.550423829,-99999.0,'11133222,11111222,99999999' 
TABS,ioos:station:wmo:42048:1,1996-12-03T10:00:00Z,27.9396,-96.8429,2.0,208.1341297,9.79765278,-99999.0,'11133222,11111222,99999999' 
TABS,ioos:station:wmo:42048:1,1996-12-03T10:30:00Z,27.9396,-96.8429,2.0,209.7667917,9.607731262,-99999.0,'11133222,11111222,99999999' 
TABS,ioos:station:wmo:42048:1,1996-12-03T11:00:00Z,27.9396,-96.8429,2.0,210.0922384,9.812568471,-99999.0,'11133222,11111222,99999999' 
TABS,ioos:station:wmo:42048:1,1996-12-03T11:30:00Z,27.9396,-96.8429,2.0,204.2679969,11.60557194,-99999.0,'11111222,11111222,99999999' 
TABS,ioos:station:wmo:42048:1,1996-12-03T12:00:00Z,27.9396,-96.8429,2.0,215.6791627,11.7445349,-99999.0,'11111222,11111222,99999999' 
TABS,ioos:station:wmo:42048:1,1996-12-03T12:30:00Z,27.9396,-96.8429,2.0,211.9449398,12.11472245,-99999.0,'11111222,11111222,99999999' 
TABS,ioos:station:wmo:42048:1,1996-12-03T13:00:00Z,27.9396,-96.8429,2.0,216.3806031,14.06051208,-99999.0,'11111222,11111222,99999999' 
TABS,ioos:station:wmo:42048:1,1996-12-03T13:30:00Z,27.9396,-96.8429,2.0,219.1452212,13.44860588,-99999.0,'11111222,11111222,99999999' 
TABS,ioos:station:wmo:42048:1,1996-12-03T14:00:00Z,27.9396,-96.8429,2.0,216.4223595,12.04236688,-99999.0,'11111222,11111222,99999999' 
TABS,ioos:station:wmo:42048:1,1996-12-03T14:30:00Z,27.9396,-96.8429,2.0,215.6907722,13.02675708,-99999.0,'11111222,11111222,99999999' 
TABS,ioos:station:wmo:42048:1,1996-12-03T15:00:00Z,27.9396,-96.8429,2.0,219.3143182,15.98855215,-99999.0,'11111222,11111222,99999999' 
TABS,ioos:station:wmo:42048:1,1996-12-03T15:30:00Z,27.9396,-96.8429,2.0,217.692698,16.56770956,-99999.0,'11111222,11111222,99999999' 
TABS,ioos:station:wmo:42048:1,1996-12-03T16:00:00Z,27.9396,-96.8429,2.0,216.1366741,18.44950948,-99999.0,'11111222,11111222,99999999' 
TABS,ioos:station:wmo:42048:1,1996-12-03T16:30:00Z,27.9396,-96.8429,2.0,224.287679,17.07087578,-99999.0,'11111222,11111222,99999999' 
TABS,ioos:station:wmo:42048:1,1996-12-03T17:00:00Z,27.9396,-96.8429,2.0,222.5981987,15.18785041,-99999.0,'11111222,11111222,99999999' 
TABS,ioos:station:wmo:42048:1,1996-12-03T17:30:00Z,27.9396,-96.8429,2.0,227.8205108,15.08672595,-99999.0,'11111222,11111222,99999999' 
TABS,ioos:station:wmo:42048:1,1996-12-03T18:00:00Z,27.9396,-96.8429,2.0,228.3326047,12.77073608,-99999.0,'11111222,11111222,99999999' 
TABS,ioos:station:wmo:42048:1,1996-12-03T18:30:00Z,27.9396,-96.8429,2.0,225.9297267,13.06905505,-99999.0,'11111222,11111222,99999999' 
TABS,ioos:station:wmo:42048:1,1996-12-03T19:00:00Z,27.9396,-96.8429,2.0,216.6138579,12.99412944,-99999.0,'11111222,11111222,99999999' 
TABS,ioos:station:wmo:42048:1,1996-12-03T19:30:00Z,27.9396,-96.8429,2.0,222.4932066,14.55203766,-99999.0,'11111222,11111222,99999999' 
TABS,ioos:station:wmo:42048:1,1996-12-03T20:00:00Z,27.9396,-96.8429,2.0,227.8607227,14.87485462,-99999.0,'11111222,11111222,99999999' 
TABS,ioos:station:wmo:42048:1,1996-12-03T20:30:00Z,27.9396,-96.8429,2.0,229.8769515,14.80385085,-99999.0,'11111222,11111222,99999999' 
TABS,ioos:station:wmo:42048:1,1996-12-03T21:00:00Z,27.9396,-96.8429,2.0,221.0807263,15.4156187,-99999.0,'11111222,11111222,99999999' 
TABS,ioos:station:wmo:42048:1,1996-12-03T21:30:00Z,27.9396,-96.8429,2.0,224.1637177,14.53966299,-99999.0,'11111222,11111222,99999999' 
TABS,ioos:station:wmo:42048:1,1996-12-03T22:00:00Z,27.9396,-96.8429,2.0,225.9773308,12.43274708,-99999.0,'11111222,11111222,99999999' 
TABS,ioos:station:wmo:42048:1,1996-12-03T22:30:00Z,27.9396,-96.8429,2.0,216.2702095,11.08860677,-99999.0,'11111222,11111222,99999999' 
TABS,ioos:station:wmo:42048:1,1996-12-03T23:00:00Z,27.9396,-96.8429,2.0,220.5294208,12.15679234,-99999.0,'11111222,11111222,99999999' 
TABS,ioos:station:wmo:42048:1,1996-12-03T23:30:00Z,27.9396,-96.8429,2.0,226.2909658,13.80623048,-99999.0,'11111222,11111222,99999999' 
TABS,ioos:station:wmo:42048:1,1996-12-04T00:00:00Z,27.9396,-96.8429,2.0,229.1523621,11.61998709,-99999.0,'11111222,11111222,99999999' 
TABS,ioos:station:wmo:42048:1,1996-12-04T00:30:00Z,27.9396,-96.8429,2.0,221.2667399,11.29524679,-99999.0,'11111222,11111222,99999999' 
TABS,ioos:station:wmo:42048:1,1996-12-04T01:00:00Z,27.9396,-96.8429,2.0,234.0749419,10.66945172,-99999.0,'11111222,11111222,99999999' 
TABS,ioos:station:wmo:42048:1,1996-12-04T01:30:00Z,27.9396,-96.8429,2.0,224.9996843,9.475230868,-99999.0,'11133222,11111222,99999999' 
TABS,ioos:station:wmo:42048:1,1996-12-04T02:00:00Z,27.9396,-96.8429,2.0,217.545046,10.51873091,-99999.0,'11111222,11111222,99999999' 
TABS,ioos:station:wmo:42048:1,1996-12-04T02:30:00Z,27.9396,-96.8429,2.0,208.1341297,9.79765278,-99999.0,'11133222,11111222,99999999' 
TABS,ioos:station:wmo:42048:1,1996-12-04T03:00:00Z,27.9396,-96.8429,2.0,224.9996843,8.216580797,-99999.0,'11133222,11111222,99999999' 
TABS,ioos:station:wmo:42048:1,1996-12-04T03:30:00Z,27.9396,-96.8429,2.0,218.5437725,13.14361062,-99999.0,'11111222,11111222,99999999' 
TABS,ioos:station:wmo:42048:1,1996-12-04T04:00:00Z,27.9396,-96.8429,2.0,227.3050274,13.18406993,-99999.0,'11111222,11111222,99999999' 
TABS,ioos:station:wmo:42048:1,1996-12-04T04:30:00Z,27.9396,-96.8429,2.0,212.5429759,12.19475297,-99999.0,'11111222,11111222,99999999' 
TABS,ioos:station:wmo:42048:1,1996-12-04T05:00:00Z,27.9396,-96.8429,2.0,216.1412045,9.5967755,-99999.0,'11133222,11111222,99999999' 
TABS,ioos:station:wmo:42048:1,1996-12-04T05:30:00Z,27.9396,-96.8429,2.0,206.5968231,7.996180338,-99999.0,'11133222,11111222,99999999' 
TABS,ioos:station:wmo:42048:1,1996-12-04T06:00:00Z,27.9396,-96.8429,2.0,210.4067423,7.942474426,-99999.0,'11133222,11111222,99999999' 
TABS,ioos:station:wmo:42048:1,1996-12-04T06:30:00Z,27.9396,-96.8429,2.0,216.2682375,6.288346365,-99999.0,'11133222,11111222,99999999' 
TABS,ioos:station:wmo:42048:1,1996-12-04T07:00:00Z,27.9396,-96.8429,2.0,212.5608519,8.305474098,-99999.0,'11133222,11111222,99999999' 
TABS,ioos:station:wmo:42048:1,1996-12-04T07:30:00Z,27.9396,-96.8429,2.0,212.0933932,7.566273852,-99999.0,'11133222,11111222,99999999' 
TABS,ioos:station:wmo:42048:1,1996-12-04T08:00:00Z,27.9396,-96.8429,2.0,231.3281395,7.633773641,-99999.0,'11133222,11111222,99999999' 
TABS,ioos:station:wmo:42048:1,1996-12-04T08:30:00Z,27.9396,-96.8429,2.0,213.1263601,8.179449859,-99999.0,'11133222,11111222,99999999' 
TABS,ioos:station:wmo:42048:1,1996-12-04T09:00:00Z,27.9396,-96.8429,2.0,216.8915786,10.42800077,-99999.0,'11111222,11111222,99999999' 
TABS,ioos:station:wmo:42048:1,1996-12-04T09:30:00Z,27.9396,-96.8429,2.0,209.9202908,6.876518014,-99999.0,'11133222,11111222,99999999' 
TABS,ioos:station:wmo:42048:1,1996-12-04T10:00:00Z,27.9396,-96.8429,2.0,216.3806031,7.030256041,-99999.0,'11133222,11111222,99999999' 
TABS,ioos:station:wmo:42048:1,1996-12-04T10:30:00Z,27.9396,-96.8429,2.0,231.3800405,6.681115176,-99999.0,'11133222,11111222,99999999' 
TABS,ioos:station:wmo:42048:1,1996-12-04T11:00:00Z,27.9396,-96.8429,2.0,216.3806031,7.030256041,-99999.0,'11133222,11111222,99999999' 
TABS,ioos:station:wmo:42048:1,1996-12-04T11:30:00Z,27.9396,-96.8429,2.0,208.1510218,7.270006878,-99999.0,'11133222,11111222,99999999' 
TABS,ioos:station:wmo:42048:1,1996-12-04T12:00:00Z,27.9396,-96.8429,2.0,217.500092,5.634341133,-99999.0,'11133222,11111222,99999999' 
TABS,ioos:station:wmo:42048:1,1996-12-04T12:30:00Z,27.9396,-96.8429,2.0,199.6622712,8.856410108,-99999.0,'11133222,11111222,99999999' 
TABS,ioos:station:wmo:42048:1,1996-12-04T13:00:00Z,27.9396,-96.8429,2.0,198.8759071,11.49838249,-99999.0,'11111222,11111222,99999999' 
TABS,ioos:station:wmo:42048:1,1996-12-04T13:30:00Z,27.9396,-96.8429,2.0,199.9940827,8.715302634,-99999.0,'11133222,11111222,99999999' 
TABS,ioos:station:wmo:42048:1,1996-12-04T14:00:00Z,27.9396,-96.8429,2.0,184.2119947,6.126548784,-99999.0,'11133222,11111222,99999999' 
TABS,ioos:station:wmo:42048:1,1996-12-04T14:30:00Z,27.9396,-96.8429,2.0,189.65966,6.197878669,-99999.0,'11133222,11111222,99999999' 
TABS,ioos:station:wmo:42048:1,1996-12-04T15:00:00Z,27.9396,-96.8429,2.0,191.5919378,5.175567602,-99999.0,'11133222,11111222,99999999' 
TABS,ioos:station:wmo:42048:1,1996-12-04T15:30:00Z,27.9396,-96.8429,2.0,197.7165101,7.820927055,-99999.0,'11133222,11111222,99999999' 
TABS,ioos:station:wmo:42048:1,1996-12-04T16:00:00Z,27.9396,-96.8429,2.0,188.2669435,8.27600145,-99999.0,'11133222,11111222,99999999' 